Regional Weather Roundup
Issued by NWS San Angelo, TX

Home | Current Version | Previous Version | Text Only | Print | Product List | Glossary On
Versions: 1 2 3 4 5 6 7 8 9 10 11 12 13 14 15 16 17 18 19 20 21 22 23 24 25 26 27 28 29 30 31 32 33 34 35 36 37 38 39 40 41 42 43 44 45 46 47 48 49 50
000
ASUS44 KSJT 310810
RWRSJT
WEST CENTRAL TEXAS REGIONAL WEATHER ROUNDUP
NATIONAL WEATHER SERVICE SAN ANGELO TX
300 AM CDT THU JUL 31 2014

NOTE: "FAIR" INDICATES FEW OR NO CLOUDS BELOW 12,000 FEET WITH NO
SIGNIFICANT WEATHER AND/OR OBSTRUCTIONS TO VISIBILITY.

TXZ049-054-064>066-071>073-076>078-098-099-113-114-127-128-139-140-
154-155-168>170-310900
...LOCATIONS ACROSS WEST CENTRAL TEXAS...

CITY           SKY/WX    TMP DP  RH WIND       PRES   REMARKS
SAN ANGELO     CLOUDY    81  65  58 N7        30.00R
ABILENE        CLOUDY    72  66  81 N16       30.04R
DYESS AFB      CLOUDY    71  66  83 NE13      30.04R
JUNCTION       MOCLDY    81  66  60 SE7       29.99R
SWEETWATER     CLOUDY    70  65  85 N18       30.10S
BROWNWOOD      CLOUDY    75  57  53 W3        29.96F
COLEMAN        CLOUDY    78  65  65 N17       29.99R
SONORA         MOCLDY    82  57  42 S8        30.03S
OZONA          FAIR      77  52  41 N7        30.02R
BRADY          CLEAR     79  61  53 S6        29.98R
$$

TEXAS PANHANDLE/OKLAHOMA PANHANDLE

CITY           SKY/WX    TMP DP  RH WIND       PRES   REMARKS
AMARILLO       PTCLDY    60  59  96 N7        30.22S
BORGER         CLEAR     62  58  86 N6        30.21F
CANADIAN       CLOUDY    64  62  91 N6        30.16F
DALHART        PTCLDY    61  57  87 N6        30.27F
DUMAS          SUNNY     57  56  97 N7        30.25S FOG
GUYMON         NOT AVBL
HEREFORD       CLOUDY    64  61  90 N10       30.25R
PAMPA          CLOUDY    60  57  89 N8        30.20F
PERRYTON       CLEAR     58  57  96 N8        30.19F
$$

SOUTHERN PANHANDLE/SOUTH PLAINS/ROLLING PLAINS

CITY           SKY/WX    TMP DP  RH WIND       PRES   REMARKS
LUBBOCK        CLOUDY    66  58  75 NE17      30.16F
SNYDER         CLOUDY    70  64  80 N17G24    30.08F
CHILDRESS      CLEAR     67  63  87 N12       30.12S
SEMINOLE       CLOUDY    70  61  73 NE10      30.16R
$$

PERMIAN BASIN

CITY           SKY/WX    TMP DP  RH WIND       PRES   REMARKS
MIDLAND        CLOUDY    73  65  75 NE15      30.07S
ODESSA         CLOUDY    73  63  70 NE15G24   30.09S
WINK           CLOUDY    76  62  62 NE17G24   30.07R
$$

FAR WEST/SOUTHWEST MOUNTAINS/TRANS PECOS

CITY           SKY/WX    TMP DP  RH WIND       PRES   REMARKS
ALPINE         CLOUDY    73  58  60 NE5       30.21S
DRYDEN           N/A     87  57  35 E7        29.95F
EL PASO        CLOUDY    76  61  59 N17       30.14S
FORT STOCKTON  MOCLDY    78  59  51 N3        30.06S
GUADALUPE PASS CLOUDY    65  61  87 NE36G43   30.22F
MARFA          CLOUDY    70  61  73 NW6       30.20F
PECOS          CLOUDY    75  66  72 N10       30.05F
$$

DALLAS/FORT WORTH METROPLEX

CITY           SKY/WX    TMP DP  RH WIND       PRES   REMARKS
DFW AIRPORT    CLOUDY    76  69  79 SE5       29.92F
FTW MEACHAM    MOCLDY    78  70  76 E8        29.93S
DAL-EXECUTIVE  CLOUDY    80  71  74 E8        29.94S
GRAND PRAIRIE  MOCLDY    80  69  69 E6        29.95F
ADDISON        CLOUDY    73  73 100 SE5       29.94F
MESQUITE       CLOUDY    73  71  94 N13       29.97R
LANCASTER      CLOUDY    78  69  75 NE5       29.97R
$$

NORTH CENTRAL TEXAS

CITY           SKY/WX    TMP DP  RH WIND       PRES   REMARKS
SHRMAN/DENISON RAIN      72  70  93 SE6       29.98F
GAINESVILLE    LGT RAIN  71  71  99 E3        29.97F
BRIDGEPORT     PTSUNNY   74  68  81 CALM      29.97F
DENTON         CLOUDY    73  70  88 E15G23    29.92F
WAXAHACHIE     CLOUDY    79  69  73 SE5       29.95S
GRANBURY       PTSUNNY   82  69  65 CALM      29.94R
$$

WESTERN NORTH TEXAS

CITY           SKY/WX    TMP DP  RH WIND       PRES   REMARKS
WICHITA FALLS  LGT RAIN  70  67  90 N16       29.99F
VERNON         CLOUDY    71  64  79 N16       30.05F
BRECKENRIDGE   PTSUNNY   74  66  76 N13G21    29.99R
COMANCHE       CLOUDY    77  63  61 CALM      29.97S
$$

CENTRAL AND SOUTH CENTRAL TEXAS

CITY           SKY/WX    TMP DP  RH WIND       PRES   REMARKS
AUSTIN/BERGSTM MOCLDY    76  70  82 S6        29.97F
WACO           CLOUDY    81  66  60 S21G28    29.92F
HILLSBORO      PTSUNNY   80  71  73 S10       29.93S
TEMPLE         CLOUDY    79  63  57 S20       29.95F
KILLEEN-GRAY   MOCLDY    79  63  57 S15       29.95S
FORT HOOD      MOCLDY    80  63  55 SE10G22   29.95F
GEORGETOWN     MOCLDY    79  66  65 S12G17    29.97F
LAGO VISTA     PTSUNNY   78  69  75 S10G18    29.99F
SAN MARCOS     CLOUDY    79  70  73 S12       29.99F
NEW BRAUNFELS  CLOUDY    79  72  79 S7        29.97S
RANDOLPH AFB   CLOUDY    79  72  79 S8        29.98S
SAN ANTONIO    MOCLDY    80  73  79 SE9       29.98S
STINSON        CLOUDY    80  73  79 SE6       29.95S
PLEASANTON     NOT AVBL
LA GRANGE      PTCLDY    77  75  93 SE5       29.96F
GIDDINGS       CLOUDY    77  73  86 S3        30.01F
$$

EAST TEXAS

CITY           SKY/WX    TMP DP  RH WIND       PRES   REMARKS
PARIS          CLOUDY    68  63  83 SE13      29.98S
CLARKSVILLE    CLOUDY    70  68  95 E9        29.98F
TYLER          LGT RAIN  77  66  68 SE9       29.99R
LONGVIEW       CLOUDY    74  65  73 SE7       29.99S
PALESTINE      NOT AVBL
NACOGDOCHES    MOCLDY    73  64  73 SE6       30.00S
$$

TEXAS HILL COUNTRY AND EDWARDS PLATEAU

CITY           SKY/WX    TMP DP  RH WIND       PRES   REMARKS
LLANO          MOSUNNY   81  64  57 S7        30.00R
HORSESHOE BAY  CLOUDY    78  67  69 S9        29.96S
KERRVILLE      CLOUDY    76  69  79 SE13      30.00F
FREDERICKSBRG  MOCLDY    76  66  71 S7        30.00S
ROCKSPRINGS    PTSUNNY   77  70  78 SE14      30.03S
HONDO          PTCLDY    78  72  81 SE9       29.99S
UVALDE         SUNNY     79  72  79 SE8       29.96S
DEL RIO        PTCLDY    84  71  65 E12       29.92R
$$

SOUTHEAST TEXAS

CITY           SKY/WX    TMP DP  RH WIND       PRES   REMARKS
COLLEGE STN    MOCLDY    79  73  82 S8        29.96F
CALDWELL       CLOUDY    77  73  88 S10       29.99F
CROCKETT       PTSUNNY   79  75  89 SE6       29.99F
BRENHAM        CLOUDY    77  72  83 S7        29.97F
HUNTSVILLE     CLEAR     78  73  84 S5        29.98S
CONROE         PTCLDY    74  73  97 S3        29.98F
HOUSTON BUSH   PTCLDY    79  74  84 S6        29.97F
HOUSTON HOBBY  PTCLDY    79  74  84 S3        29.97S
PERLAND        PTCLDY    79  74  84 MISG      29.99S
WHARTON        SUNNY     71  70  97 CALM      29.99R
$$

THE UPPER TEXAS COAST

CITY           SKY/WX    TMP DP  RH WIND       PRES   REMARKS
ORANGE         PTSUNNY   77  69  76 E3        30.00S
PORT ARTHUR    MOCLDY    79  72  79 E6        29.97F
GALVESTON      CLEAR     83  75  77 SE14      29.97F
ANGLETON       CLEAR     75  74  96 CALM      29.97F
BAY CITY       MOSUNNY   76  76 100 CALM      29.97F
$$

TEXAS COASTAL BEND, RIO GRANDE PLAINS DEEP SOUTH TEXAS

CITY           SKY/WX    TMP DP  RH WIND       PRES   REMARKS
VICTORIA       PTCLDY    78  74  87 SE6       29.96F
BEEVILLE       FAIR      80  75  86 S9G18     29.95S
ROCKPORT       CLEAR     82  77  84 S10G18    29.94F
PORT ARANSAS   SUNNY     80  77  91 S8        29.94F
PORT LAVACA    PTSUNNY   77  74  91 SE5       29.95F
CORPUS CHRISTI PTCLDY    81  76  84 S15       29.94F
KINGSVILLE NAS MOCLDY    81  78  91 S12       29.93F
COTULLA        CLEAR     81  73  76 SE9       29.93S
LAREDO         CLEAR     83  72  69 SE14      29.92F
BROWNSVILLE    CLEAR     81  77  88 S9        29.94F
PORT ISABEL    PTCLDY    83  77  82 S12       29.94F
HEBBRONVILLE   MOSUNNY   80  74  81 SE12G17   29.94F
MCALLEN        PTCLDY    82  77  84 S12       29.93F
WESLACO        CLEAR     82  75  79 S12       29.93S
FALFURRIAS     CLOUDY    74  74 100 SE9       29.93F
EDINBURG       MOSUNNY   84  76  76 SE13      29.93F
$$



USA.gov is the U.S. government's official web portal to all federal, state and local government web resources and services.